CXA127 ZSPD-ZBAD

Flight info

Callsign CXA127
Flight time 1h 35m
Altitude 38100
Route PIK95D PIKAS G330 PIMOL A593 DALIM W157 BEKDO/K0893S1130 W157 AVBOX AVBOX5L
Aircraft B77W/H-SDE2E3FGHIRWXY/LB1

Departure

Time 2026-04-14 14:53
Airport Shanghai Pudong International Airport (ZSPD)

Arrival

Time 2026-04-14 16:29
Airport Beijing Daxing International Airport (ZBAD)
Time Latitude Longitude Altitude Speed Heading
2026-04-14 14:28 31.13733 121.80163 28 ft 0 kts 72°
2026-04-14 14:43 31.13732 121.80163 28 ft 0 kts 72°
2026-04-14 14:44 31.13728 121.80148 27 ft 3 kts 72°
2026-04-14 14:44 31.13722 121.80125 26 ft 3 kts 72°
2026-04-14 14:44 31.13717 121.80108 26 ft 3 kts 75°
2026-04-14 14:44 31.13714 121.80088 26 ft 3 kts 95°
2026-04-14 14:45 31.13716 121.80071 25 ft 3 kts 124°
2026-04-14 14:45 31.13725 121.80060 26 ft 3 kts 155°
2026-04-14 14:45 31.13743 121.80052 25 ft 3 kts 166°
2026-04-14 14:45 31.13761 121.80047 27 ft 2 kts 162°
2026-04-14 14:46 31.13767 121.80045 26 ft 0 kts 162°
2026-04-14 14:48 31.13762 121.80047 26 ft 4 kts 162°
2026-04-14 14:48 31.13703 121.80069 25 ft 11 kts 162°
2026-04-14 14:48 31.13630 121.80097 28 ft 11 kts 162°
2026-04-14 14:49 31.13557 121.80117 28 ft 11 kts 182°
2026-04-14 14:49 31.13501 121.80060 28 ft 11 kts 240°
2026-04-14 14:49 31.13473 121.79975 28 ft 11 kts 251°
2026-04-14 14:49 31.13446 121.79888 27 ft 11 kts 239°
2026-04-14 14:50 31.13370 121.79865 27 ft 12 kts 175°
2026-04-14 14:50 31.13289 121.79889 27 ft 12 kts 163°
2026-04-14 14:50 31.13210 121.79918 27 ft 12 kts 162°
2026-04-14 14:50 31.13131 121.79948 27 ft 12 kts 161°
2026-04-14 14:51 31.13052 121.79978 27 ft 12 kts 161°
2026-04-14 14:51 31.12988 121.79998 27 ft 8 kts 179°
2026-04-14 14:51 31.12942 121.79964 27 ft 8 kts 234°
2026-04-14 14:51 31.12935 121.79948 27 ft 1 kts 244°
2026-04-14 14:52 31.12915 121.79889 27 ft 13 kts 256°
2026-04-14 14:52 31.12952 121.79802 27 ft 13 kts 326°
2026-04-14 14:52 31.12968 121.79793 27 ft 0 kts 337°
2026-04-14 14:52 31.12971 121.79791 27 ft 1 kts 337°
2026-04-14 14:53 31.12993 121.79782 27 ft 10 kts 340°
2026-04-14 14:53 31.13180 121.79711 27 ft 59 kts 342°
2026-04-14 14:53 31.13969 121.79410 27 ft 180 kts 341°
2026-04-14 14:53 31.15394 121.78856 883 ft 224 kts 341°
2026-04-14 14:54 31.16834 121.78282 2249 ft 225 kts 340°
2026-04-14 14:54 31.18369 121.77662 2844 ft 242 kts 340°
2026-04-14 14:54 31.20036 121.76987 3046 ft 259 kts 340°
2026-04-14 14:54 31.21728 121.76302 3040 ft 260 kts 340°
2026-04-14 14:55 31.23448 121.75607 3055 ft 261 kts 340°
2026-04-14 14:55 31.25172 121.74909 3569 ft 262 kts 340°
2026-04-14 14:55 31.26904 121.74207 4564 ft 264 kts 340°
2026-04-14 14:55 31.28624 121.73511 5495 ft 266 kts 340°
2026-04-14 14:56 31.32198 121.72064 7267 ft 274 kts 340°
2026-04-14 14:56 31.34013 121.71328 8133 ft 278 kts 340°
2026-04-14 14:56 31.35834 121.70605 8973 ft 282 kts 341°
2026-04-14 14:57 31.37707 121.69891 9810 ft 285 kts 341°
2026-04-14 14:57 31.39609 121.69158 10529 ft 291 kts 338°
2026-04-14 14:57 31.41370 121.67853 10776 ft 315 kts 315°
2026-04-14 14:57 31.42934 121.65901 11009 ft 342 kts 311°
2026-04-14 14:58 31.44591 121.63731 11339 ft 366 kts 311°
2026-04-14 14:58 31.46302 121.61500 12127 ft 376 kts 312°
2026-04-14 14:58 31.48083 121.59209 13126 ft 382 kts 312°
2026-04-14 14:58 31.49895 121.56911 14134 ft 387 kts 313°
2026-04-14 14:59 31.51745 121.54587 15105 ft 392 kts 313°
2026-04-14 14:59 31.53629 121.52237 16042 ft 398 kts 313°
2026-04-14 14:59 31.55432 121.49995 16892 ft 403 kts 313°
2026-04-14 14:59 31.57374 121.47586 17765 ft 408 kts 313°
2026-04-14 15:00 31.59333 121.45157 18622 ft 413 kts 313°
2026-04-14 15:00 31.61322 121.42689 19449 ft 419 kts 313°
2026-04-14 15:00 31.63343 121.40181 20257 ft 424 kts 313°
2026-04-14 15:00 31.65384 121.37645 21026 ft 429 kts 313°
2026-04-14 15:01 31.67422 121.35112 21759 ft 434 kts 313°
2026-04-14 15:01 31.69503 121.32523 22472 ft 438 kts 313°
2026-04-14 15:01 31.71606 121.29903 23168 ft 443 kts 313°
2026-04-14 15:01 31.73735 121.27251 23842 ft 448 kts 313°
2026-04-14 15:02 31.75880 121.24576 24485 ft 452 kts 313°
2026-04-14 15:02 31.78045 121.21874 25102 ft 456 kts 313°
2026-04-14 15:02 31.80231 121.19144 25694 ft 461 kts 313°
2026-04-14 15:02 31.82438 121.16386 26268 ft 465 kts 313°
2026-04-14 15:03 31.84663 121.13602 26817 ft 469 kts 313°
2026-04-14 15:03 31.86905 121.10796 27345 ft 472 kts 313°
2026-04-14 15:03 31.89162 121.07969 27848 ft 476 kts 313°
2026-04-14 15:03 31.91435 121.05119 28330 ft 479 kts 313°
2026-04-14 15:04 31.93728 121.02243 28772 ft 483 kts 313°
2026-04-14 15:04 31.96038 120.99342 29192 ft 486 kts 313°
2026-04-14 15:04 31.98325 120.96468 29596 ft 489 kts 313°
2026-04-14 15:04 32.00655 120.93537 29993 ft 491 kts 313°
2026-04-14 15:05 32.02989 120.90599 30483 ft 490 kts 313°
2026-04-14 15:05 32.05317 120.87667 31027 ft 488 kts 313°
2026-04-14 15:05 32.07636 120.84742 31556 ft 486 kts 313°
2026-04-14 15:05 32.09940 120.81836 32043 ft 486 kts 313°
2026-04-14 15:06 32.12250 120.78920 32495 ft 485 kts 313°
2026-04-14 15:06 32.14417 120.75886 32858 ft 484 kts 304°
2026-04-14 15:06 32.16030 120.72404 33223 ft 484 kts 292°
2026-04-14 15:06 32.17087 120.68648 33659 ft 482 kts 283°
2026-04-14 15:07 32.17566 120.64745 34066 ft 480 kts 275°
2026-04-14 15:07 32.17758 120.62140 34296 ft 480 kts 275°
2026-04-14 15:07 32.18025 120.58211 34663 ft 480 kts 274°
2026-04-14 15:07 32.18299 120.54284 35053 ft 479 kts 275°
2026-04-14 15:08 32.18593 120.50374 35442 ft 478 kts 275°
2026-04-14 15:08 32.18905 120.46468 35806 ft 477 kts 275°
2026-04-14 15:08 32.19226 120.42573 36147 ft 477 kts 275°
2026-04-14 15:08 32.19551 120.38672 36457 ft 476 kts 275°
2026-04-14 15:09 32.19873 120.34782 36742 ft 477 kts 275°
2026-04-14 15:09 32.20192 120.30880 37022 ft 477 kts 275°
2026-04-14 15:09 32.20509 120.26986 37299 ft 477 kts 275°
2026-04-14 15:09 32.20827 120.23092 37574 ft 477 kts 275°
2026-04-14 15:10 32.21145 120.19194 37832 ft 477 kts 275°
2026-04-14 15:10 32.21464 120.15289 38019 ft 479 kts 275°
2026-04-14 15:10 32.22097 120.07476 38097 ft 482 kts 275°
2026-04-14 15:11 32.22729 119.99613 38087 ft 477 kts 275°
2026-04-14 15:11 32.23348 119.91844 38096 ft 474 kts 275°
2026-04-14 15:12 32.23962 119.84094 38100 ft 473 kts 275°
2026-04-14 15:12 32.25617 119.76689 38102 ft 471 kts 301°
2026-04-14 15:13 32.27571 119.73595 38107 ft 472 kts 315°
2026-04-14 15:13 32.30112 119.71163 38110 ft 471 kts 324°
2026-04-14 15:13 32.35538 119.66749 38109 ft 476 kts 325°
2026-04-14 15:14 32.40969 119.62204 38110 ft 480 kts 324°
2026-04-14 15:14 32.46394 119.57557 38107 ft 483 kts 324°
2026-04-14 15:15 32.51835 119.52869 38103 ft 484 kts 323°
2026-04-14 15:15 32.57270 119.48167 38098 ft 483 kts 323°
2026-04-14 15:16 32.62656 119.43503 38098 ft 481 kts 323°
2026-04-14 15:16 32.68055 119.38822 38098 ft 479 kts 323°
2026-04-14 15:17 32.73431 119.34155 38099 ft 477 kts 323°
2026-04-14 15:17 32.78784 119.29499 38097 ft 476 kts 323°
2026-04-14 15:18 32.84125 119.24848 38102 ft 475 kts 323°
2026-04-14 15:18 32.89460 119.20194 38099 ft 475 kts 323°
2026-04-14 15:19 32.94795 119.15535 38104 ft 476 kts 323°
2026-04-14 15:19 33.00156 119.10911 38101 ft 476 kts 324°
2026-04-14 15:20 33.05539 119.06287 38102 ft 477 kts 324°
2026-04-14 15:20 33.10883 119.01678 38102 ft 478 kts 324°
2026-04-14 15:21 33.16263 118.97025 38104 ft 478 kts 324°
2026-04-14 15:21 33.21653 118.92353 38103 ft 479 kts 323°
2026-04-14 15:22 33.27030 118.87653 38102 ft 479 kts 323°
2026-04-14 15:22 33.32416 118.82955 38102 ft 479 kts 324°
2026-04-14 15:23 33.37819 118.78283 38101 ft 479 kts 324°
2026-04-14 15:23 33.43220 118.73602 38104 ft 479 kts 324°
2026-04-14 15:24 33.48576 118.68950 38101 ft 478 kts 324°
2026-04-14 15:24 33.53967 118.64278 38103 ft 478 kts 324°
2026-04-14 15:25 33.59363 118.59599 38099 ft 478 kts 324°
2026-04-14 15:25 33.64752 118.54915 38105 ft 478 kts 324°
2026-04-14 15:26 33.70134 118.50228 38099 ft 478 kts 324°
2026-04-14 15:26 33.75512 118.45537 38101 ft 478 kts 323°
2026-04-14 15:27 33.80897 118.40832 38103 ft 478 kts 323°
2026-04-14 15:27 33.86270 118.36130 38097 ft 478 kts 323°
2026-04-14 15:28 33.91607 118.31452 38104 ft 478 kts 323°
2026-04-14 15:28 33.97013 118.26707 38105 ft 478 kts 323°
2026-04-14 15:29 34.02374 118.22035 38105 ft 478 kts 324°
2026-04-14 15:29 34.07770 118.17341 38100 ft 478 kts 324°
2026-04-14 15:30 34.13164 118.12640 38102 ft 478 kts 324°
2026-04-14 15:30 34.18556 118.07941 38101 ft 478 kts 324°
2026-04-14 15:31 34.23948 118.03243 38098 ft 478 kts 325°
2026-04-14 15:31 34.29767 117.99366 38110 ft 478 kts 336°
2026-04-14 15:32 34.36062 117.96754 38107 ft 478 kts 343°
2026-04-14 15:32 34.42473 117.94548 38101 ft 479 kts 344°
2026-04-14 15:33 34.48832 117.92335 38104 ft 479 kts 343°
2026-04-14 15:33 34.55230 117.90056 38102 ft 479 kts 343°
2026-04-14 15:34 34.61638 117.87754 38098 ft 479 kts 343°
2026-04-14 15:34 34.68038 117.85452 38103 ft 479 kts 343°
2026-04-14 15:35 34.74388 117.83168 38102 ft 479 kts 343°
2026-04-14 15:35 34.80784 117.80863 38100 ft 479 kts 343°
2026-04-14 15:36 34.87173 117.78533 38101 ft 479 kts 343°
2026-04-14 15:36 34.93564 117.76193 38100 ft 479 kts 343°
2026-04-14 15:37 34.99952 117.73855 38104 ft 480 kts 343°
2026-04-14 15:37 35.06352 117.71510 38100 ft 480 kts 343°
2026-04-14 15:38 35.12751 117.69164 38100 ft 480 kts 343°
2026-04-14 15:38 35.19154 117.66815 38104 ft 480 kts 343°
2026-04-14 15:39 35.25558 117.64461 38103 ft 480 kts 343°
2026-04-14 15:39 35.31921 117.62118 38104 ft 481 kts 343°
2026-04-14 15:40 35.38323 117.59756 38101 ft 481 kts 343°
2026-04-14 15:40 35.44733 117.57388 38105 ft 481 kts 343°
2026-04-14 15:41 35.51141 117.55016 38104 ft 481 kts 343°
2026-04-14 15:41 35.57557 117.52637 38101 ft 481 kts 343°
2026-04-14 15:42 35.63960 117.50260 38102 ft 480 kts 343°
2026-04-14 15:42 35.70361 117.47879 38100 ft 480 kts 343°
2026-04-14 15:43 35.76711 117.45512 38099 ft 480 kts 343°
2026-04-14 15:43 35.83104 117.43126 38100 ft 480 kts 343°
2026-04-14 15:44 35.89492 117.40738 38101 ft 480 kts 343°
2026-04-14 15:44 35.95885 117.38343 38099 ft 480 kts 343°
2026-04-14 15:45 36.02272 117.35953 38101 ft 480 kts 343°
2026-04-14 15:45 36.08680 117.33587 38103 ft 480 kts 343°
2026-04-14 15:46 36.15088 117.31224 38101 ft 481 kts 343°
2026-04-14 15:46 36.21499 117.28850 38100 ft 481 kts 343°
2026-04-14 15:47 36.27866 117.26486 38100 ft 480 kts 343°
2026-04-14 15:47 36.34273 117.24103 38099 ft 480 kts 343°
2026-04-14 15:48 36.40688 117.21711 38100 ft 481 kts 342°
2026-04-14 15:48 36.46949 117.18751 38103 ft 482 kts 337°
2026-04-14 15:49 36.53126 117.15479 38106 ft 482 kts 336°
2026-04-14 15:49 36.59302 117.12209 38102 ft 483 kts 337°
2026-04-14 15:50 36.65459 117.08985 38105 ft 482 kts 337°
2026-04-14 15:50 36.71648 117.05755 38101 ft 481 kts 337°
2026-04-14 15:51 36.77814 117.02531 38103 ft 480 kts 337°
2026-04-14 15:51 36.83964 116.99308 38100 ft 479 kts 337°
2026-04-14 15:52 36.90102 116.96085 38101 ft 478 kts 337°
2026-04-14 15:52 36.96232 116.92860 38100 ft 477 kts 337°
2026-04-14 15:53 37.02350 116.89636 38103 ft 477 kts 337°
2026-04-14 15:53 37.08468 116.86406 38104 ft 477 kts 337°
2026-04-14 15:54 37.17653 116.81546 38103 ft 478 kts 337°
2026-04-14 15:55 37.23840 116.78502 38101 ft 478 kts 342°
2026-04-14 15:55 37.30172 116.76113 38108 ft 478 kts 343°
2026-04-14 15:56 37.36577 116.73766 38103 ft 479 kts 343°
2026-04-14 15:56 37.42972 116.71375 38103 ft 479 kts 343°
2026-04-14 15:57 37.48296 116.69359 38102 ft 480 kts 343°
2026-04-14 15:57 37.55735 116.66529 38103 ft 480 kts 343°
2026-04-14 15:58 37.61055 116.64503 38104 ft 480 kts 343°
2026-04-14 15:58 37.67449 116.62066 38103 ft 480 kts 343°
2026-04-14 15:59 37.73845 116.59624 38102 ft 480 kts 343°
2026-04-14 15:59 37.80202 116.57192 38102 ft 479 kts 343°
2026-04-14 16:00 37.86616 116.54734 37567 ft 488 kts 343°
2026-04-14 16:00 37.89878 116.53482 36886 ft 489 kts 343°
2026-04-14 16:00 37.93124 116.52218 36133 ft 487 kts 341°
2026-04-14 16:00 37.96232 116.50659 35316 ft 474 kts 335°
2026-04-14 16:01 37.99151 116.48780 34479 ft 469 kts 330°
2026-04-14 16:01 38.01925 116.46589 33612 ft 471 kts 324°
2026-04-14 16:01 38.04580 116.44132 32705 ft 474 kts 323°
2026-04-14 16:01 38.07202 116.41656 31776 ft 477 kts 323°
2026-04-14 16:02 38.09889 116.39156 30783 ft 481 kts 323°
2026-04-14 16:02 38.12594 116.36670 30060 ft 478 kts 324°
2026-04-14 16:02 38.15277 116.34212 29360 ft 474 kts 324°
2026-04-14 16:02 38.17945 116.31764 28666 ft 471 kts 324°
2026-04-14 16:03 38.20586 116.29334 27990 ft 467 kts 324°
2026-04-14 16:03 38.23270 116.27071 27312 ft 459 kts 333°
2026-04-14 16:03 38.26280 116.25810 26672 ft 456 kts 351°
2026-04-14 16:03 38.29428 116.25627 26039 ft 452 kts
2026-04-14 16:04 38.32478 116.26450 25416 ft 444 kts 16°
2026-04-14 16:04 38.35438 116.27556 24793 ft 441 kts 16°
2026-04-14 16:04 38.38345 116.28620 24176 ft 438 kts 15°
2026-04-14 16:04 38.41273 116.29666 23550 ft 435 kts 15°
2026-04-14 16:05 38.44185 116.30687 22931 ft 433 kts 15°
2026-04-14 16:05 38.47081 116.31690 22317 ft 430 kts 15°
2026-04-14 16:05 38.49962 116.32683 21699 ft 427 kts 15°
2026-04-14 16:05 38.52827 116.33671 21099 ft 424 kts 15°
2026-04-14 16:06 38.55672 116.34653 20496 ft 421 kts 15°
2026-04-14 16:06 38.58492 116.35628 19898 ft 418 kts 15°
2026-04-14 16:06 38.61259 116.36585 19309 ft 416 kts 15°
2026-04-14 16:06 38.64047 116.37551 18704 ft 413 kts 15°
2026-04-14 16:07 38.66781 116.38649 18119 ft 410 kts 20°
2026-04-14 16:07 38.69423 116.40014 17533 ft 408 kts 23°
2026-04-14 16:07 38.72012 116.41469 16937 ft 405 kts 24°
2026-04-14 16:07 38.74554 116.42913 16379 ft 403 kts 23°
2026-04-14 16:08 38.77121 116.44351 15782 ft 400 kts 23°
2026-04-14 16:08 38.79674 116.45757 15199 ft 398 kts 22°
2026-04-14 16:08 38.82220 116.47140 14616 ft 395 kts 22°
2026-04-14 16:08 38.84756 116.48509 14038 ft 390 kts 22°
2026-04-14 16:09 38.87202 116.49824 13450 ft 374 kts 22°
2026-04-14 16:09 38.89570 116.51098 12935 ft 373 kts 22°
2026-04-14 16:09 38.91967 116.52387 12389 ft 373 kts 22°
2026-04-14 16:09 38.94354 116.53672 11848 ft 372 kts 22°
2026-04-14 16:10 38.96740 116.54958 11295 ft 371 kts 22°
2026-04-14 16:10 38.99111 116.56238 10929 ft 365 kts 22°
2026-04-14 16:10 39.01414 116.57482 10774 ft 353 kts 22°
2026-04-14 16:10 39.03652 116.58691 10614 ft 343 kts 22°
2026-04-14 16:11 39.05821 116.59864 10470 ft 333 kts 22°
2026-04-14 16:11 39.07961 116.60758 10307 ft 318 kts
2026-04-14 16:11 39.10096 116.60666 10199 ft 304 kts 352°
2026-04-14 16:11 39.12163 116.60315 10084 ft 295 kts 352°
2026-04-14 16:12 39.14174 116.59983 9880 ft 290 kts 352°
2026-04-14 16:12 39.16143 116.59664 9538 ft 278 kts 352°
2026-04-14 16:12 39.18023 116.59363 9217 ft 266 kts 352°
2026-04-14 16:12 39.19813 116.59080 8937 ft 262 kts 352°
2026-04-14 16:13 39.21634 116.58793 8646 ft 265 kts 352°
2026-04-14 16:13 39.23486 116.58503 8345 ft 270 kts 353°
2026-04-14 16:13 39.25362 116.58210 8026 ft 272 kts 353°
2026-04-14 16:13 39.27246 116.57916 7708 ft 271 kts 353°
2026-04-14 16:14 39.29118 116.57625 7383 ft 271 kts 353°
2026-04-14 16:14 39.30990 116.57333 7066 ft 270 kts 353°
2026-04-14 16:14 39.32821 116.57048 6823 ft 266 kts 353°
2026-04-14 16:14 39.34643 116.56764 6661 ft 260 kts 353°
2026-04-14 16:15 39.36429 116.56486 6500 ft 258 kts 353°
2026-04-14 16:15 39.38222 116.56206 6357 ft 260 kts 353°
2026-04-14 16:15 39.40037 116.55923 6208 ft 263 kts 353°
2026-04-14 16:15 39.41838 116.55641 6052 ft 264 kts 353°
2026-04-14 16:16 39.43655 116.55357 5895 ft 263 kts 353°
2026-04-14 16:16 39.45470 116.55074 5733 ft 262 kts 353°
2026-04-14 16:16 39.47276 116.54791 5583 ft 261 kts 353°
2026-04-14 16:16 39.49079 116.54509 5413 ft 260 kts 353°
2026-04-14 16:17 39.50851 116.54232 5283 ft 259 kts 353°
2026-04-14 16:17 39.52636 116.53952 5133 ft 258 kts 353°
2026-04-14 16:17 39.54415 116.53673 4980 ft 257 kts 353°
2026-04-14 16:17 39.56179 116.53397 4892 ft 253 kts 353°
2026-04-14 16:18 39.57922 116.53123 4852 ft 253 kts 353°
2026-04-14 16:18 39.59678 116.52847 4817 ft 257 kts 353°
2026-04-14 16:18 39.61466 116.52566 4773 ft 258 kts 353°
2026-04-14 16:18 39.63250 116.52285 4720 ft 258 kts 353°
2026-04-14 16:19 39.65028 116.52006 4672 ft 257 kts 353°
2026-04-14 16:19 39.66778 116.51731 4628 ft 256 kts 353°
2026-04-14 16:19 39.68550 116.51451 4590 ft 255 kts 353°
2026-04-14 16:19 39.70307 116.51174 4553 ft 255 kts 353°
2026-04-14 16:20 39.72069 116.50897 4510 ft 254 kts 353°
2026-04-14 16:20 39.73828 116.50619 4467 ft 254 kts 353°
2026-04-14 16:20 39.75562 116.50346 4428 ft 254 kts 353°
2026-04-14 16:20 39.77308 116.50045 4363 ft 249 kts 346°
2026-04-14 16:21 39.78792 116.49067 4301 ft 234 kts 314°
2026-04-14 16:21 39.79566 116.47260 4289 ft 232 kts 280°
2026-04-14 16:21 39.79541 116.45173 4269 ft 232 kts 262°
2026-04-14 16:21 39.79303 116.43084 4235 ft 235 kts 258°
2026-04-14 16:22 39.78819 116.41079 4189 ft 236 kts 245°
2026-04-14 16:22 39.77981 116.39285 4143 ft 224 kts 231°
2026-04-14 16:22 39.76915 116.37910 4089 ft 209 kts 216°
2026-04-14 16:22 39.75681 116.37014 4080 ft 199 kts 203°
2026-04-14 16:23 39.74400 116.36481 3958 ft 186 kts 193°
2026-04-14 16:23 39.73161 116.36207 3919 ft 175 kts 188°
2026-04-14 16:23 39.71996 116.36079 3879 ft 162 kts 183°
2026-04-14 16:23 39.70912 116.36062 3808 ft 155 kts 181°
2026-04-14 16:24 39.69847 116.36050 3605 ft 152 kts 180°
2026-04-14 16:24 39.68776 116.36102 3449 ft 154 kts 177°
2026-04-14 16:24 39.67699 116.36223 3209 ft 154 kts 175°
2026-04-14 16:24 39.66654 116.36371 3003 ft 151 kts 174°
2026-04-14 16:25 39.65611 116.36531 2787 ft 152 kts 174°
2026-04-14 16:25 39.64560 116.36718 2564 ft 152 kts 172°
2026-04-14 16:25 39.63522 116.36947 2341 ft 151 kts 170°
2026-04-14 16:25 39.62490 116.37172 2112 ft 150 kts 173°
2026-04-14 16:26 39.61460 116.37357 1900 ft 149 kts 175°
2026-04-14 16:26 39.60426 116.37461 1726 ft 149 kts 179°
2026-04-14 16:26 39.59389 116.37482 1557 ft 150 kts 178°
2026-04-14 16:26 39.58359 116.37668 1378 ft 149 kts 171°
2026-04-14 16:27 39.57343 116.37907 1206 ft 148 kts 172°
2026-04-14 16:27 39.56318 116.38072 1018 ft 149 kts 175°
2026-04-14 16:27 39.55302 116.38181 812 ft 148 kts 177°
2026-04-14 16:27 39.54282 116.38332 595 ft 147 kts 170°
2026-04-14 16:28 39.53277 116.38519 404 ft 146 kts 174°
2026-04-14 16:28 39.52270 116.38661 244 ft 146 kts 174°
2026-04-14 16:28 39.51259 116.38817 119 ft 146 kts 173°
2026-04-14 16:28 39.50327 116.38955 100 ft 114 kts 173°
2026-04-14 16:29 39.49767 116.39047 103 ft 49 kts 173°
2026-04-14 16:29 39.49464 116.39109 104 ft 39 kts 160°
2026-04-14 16:29 39.49316 116.39208 101 ft 4 kts 147°
2026-04-14 16:29 39.49283 116.39235 101 ft 5 kts 148°
2026-04-14 16:30 39.49239 116.39273 99 ft 10 kts 145°